Location: El Águila
(10.4167°N, 66.7167°W)
Time: 05:07:03
(UTC+00:00)

Cosmos 1805 - Pass Details

Date: 02 October 2022
Orbit: 515 x 524 km, 82.5° (Epoch: 04 December)

Event Time Altitude Azimuth Distance (km) Brightness Sun altitude
Rises 22:40:31 0° 192° (SSW) 2,635 7.0 -6.7°
Reaches altitude 10° 22:42:41 10° 196° (SSW) 1,749 6.1 -7.2°
Maximum altitude 22:46:26 55° 274° (W) 630 4.1 -8.1°
Drops below altitude 10° 22:50:13 10° 353° (N) 1,754 6.0 -9.1°
Sets 22:52:23 0° 358° (N) 2,643 6.8 -9.6°
